Location: Peach Mountain Observatory
(42.3967°N, 83.9367°W)
Time: 21:34:33
(UTC-05:00)

S-56A Canister/Altair - Pass Details

Date: 30 January 2020
Orbit: 633 x 2500 km, 38.9° (Epoch: 26 February)

Event Time Altitude Azimuth Distance (km) Brightness Sun altitude
Rises 20:50:29 0° 260° (W) 4,434 12.4 -34.0°
Reaches altitude 10° 20:53:58 10° 258° (WSW) 3,159 11.4 -34.6°
Enters shadow 20:59:17 44° 239° (WSW) 1,322 8.8 -35.6°
Maximum altitude 21:01:11 64° 179° (S) 990 - -36.0°
Drops below altitude 10° 21:06:13 10° 98° (E) 2,234 - -36.9°
Sets 21:08:19 0° 95° (E) 3,048 - -37.3°
